Content
SEND FEEDBACK

Daily
Averages
Monthly
Summary
Netherlands

ROTTERDAM, NETHERLANDS


Home > Europe > Netherlands
Elevation: 13 feet     Latitude: 51 57N     Longitude: 004 26E

WEATHER
 
SELECT A DAY
Number of Records: 422,275;   Date Range: 7/1/96 - 10/20/14
 
SHARE

PRINT THIS DATA

[ ← Previous Day ]
WEATHER ALMANAC - FEBRUARY 20, 2013
[ Next Day → ]
[ °C ]   °F
Weather ElementAverageHighLow
Temperature31.8 °F35.6 °F (1:25 am)28 °F (10:00 pm)
Dewpoint24.8 °F28.4 °F (2:25 am)21.2 °F (5:55 pm)
Humidity75 %93 % (6:25 am)52 % (7:00 pm)
Barometer30.27 in30.33 in (10:00 pm)30.15 in (1:25 am)
Wind Speed11.6 mph17.3 mph (11:25 am)
Weather ElementAverage
Visibility7.9 mi
Wind DirectionENE (66.2 °)

Weather ElementTotal
Precipitation---
Heating Degree Days33.2 (Base 65)
Averaged from 47 records on February 20, 2013
WEATHER CONDITIONS BREAKOUT
WIND DIRECTION BREAKOUT
WEATHER BY HOUR - FEBRUARY 20, 2013
[ °C ]   °F
Local TimeTemperatureDewpointHumidityBarometerVisibilityWind DirectionWind SpeedGust SpeedPrecipitationEventsConditions
1:25 AM35.6 °F26.6 °F70 %30.15 in6.2 miENE (70°)11.5 mph
1:55 AM33.8 °F26.6 °F75 %30.15 in6.2 miENE (70°)11.5 mph
2:25 AM33.8 °F28.4 °F81 %30.18 in6.2 miENE (70°)10.4 mphPartly Cloudy
2:55 AM32.0 °F28.4 °F87 %30.18 in6.2 miENE (60°)10.4 mph
3:25 AM30.2 °F26.6 °F86 %30.18 in6.2 miENE (60°)9.2 mph
3:55 AM30.2 °F26.6 °F86 %30.18 in6.2 miENE (60°)10.4 mph
4:00 AM30.0 °F26.0 °F78 %30.21 in19.0 miENE (60°)11.2 mph
4:25 AM30.2 °F24.8 °F80 %30.18 in6.2 miENE (60°)12.7 mph
4:55 AM30.2 °F26.6 °F86 %30.21 in6.2 miENE (70°)12.7 mph
5:25 AM30.2 °F26.6 °F86 %30.21 in6.2 miENE (60°)11.5 mph
5:55 AM30.2 °F26.6 °F86 %30.21 in6.2 miENE (60°)10.4 mph
6:25 AM28.4 °F26.6 °F93 %30.24 in6.2 miENE (60°)10.4 mph
6:55 AM28.4 °F26.6 °F93 %30.24 in6.2 miENE (60°)9.2 mph
7:00 AM29.0 °F26.0 °F85 %30.25 in11.0 miENE (60°)11.2 mphPartly Cloudy
7:25 AM30.2 °F26.6 °F86 %30.24 in6.2 miENE (70°)11.5 mph
7:55 AM28.4 °F24.8 °F86 %30.24 in6.2 miENE (70°)11.5 mph
8:25 AM30.2 °F24.8 °F80 %30.27 in6.2 miENE (70°)10.4 mph
8:55 AM30.2 °F24.8 °F80 %30.27 in6.2 miENE (60°)10.4 mph
9:25 AM30.2 °F26.6 °F86 %30.27 in6.2 miENE (70°)10.4 mph
9:55 AM32.0 °F24.8 °F75 %30.30 in6.2 miENE (70°)12.7 mph
10:00 AM32.0 °F25.0 °F67 %30.31 in19.0 miENE (70°)15.7 mph
10:55 AM33.8 °F24.8 °F70 %30.30 in6.2 miEast (80°)13.8 mph
11:25 AM33.8 °F24.8 °F70 %30.30 in6.2 miEast (80°)17.3 mph
11:55 AM33.8 °F24.8 °F70 %30.30 in6.2 miENE (70°)15.0 mph
12:25 PM35.6 °F24.8 °F65 %30.30 in6.2 miEast (90°)12.7 mphMostly Cloudy
12:55 PM35.6 °F24.8 °F65 %30.30 in6.2 miEast (90°)12.7 mphMostly Cloudy
1:00 PM35.0 °F25.0 °F55 %30.31 in19.0 miENE (70°)13.4 mphPartly Cloudy
1:25 PM35.6 °F24.8 °F65 %30.30 in6.2 miENE (60°)13.8 mphScattered Clouds
1:55 PM33.8 °F24.8 °F70 %30.30 in6.2 miENE (70°)12.7 mphPartly Cloudy
2:55 PM35.6 °F26.6 °F70 %30.27 in6.2 miNE (50°)12.7 mphMostly Cloudy
3:25 PM35.6 °F23.0 °F60 %30.27 in6.2 miNE (50°)15.0 mphOvercast
3:55 PM35.6 °F24.8 °F65 %30.27 in6.2 miNE (50°)15.0 mphOvercast
4:55 PM33.8 °F23.0 °F65 %30.30 in6.2 miENE (70°)13.8 mphOvercast
5:55 PM33.8 °F21.2 °F60 %30.30 in6.2 miENE (70°)15.0 mphOvercast
6:25 PM33.8 °F23.0 °F65 %30.30 in6.2 miEast (80°)10.4 mphOvercast
6:55 PM33.8 °F23.0 °F65 %30.30 in6.2 miENE (70°)10.4 mphOvercast
7:00 PM33.0 °F22.0 °F52 %30.32 in28.0 miENE (70°)8.9 mphPartly Cloudy
7:25 PM33.8 °F23.0 °F65 %30.30 in6.2 miENE (70°)10.4 mphOvercast
7:55 PM32.0 °F21.2 °F64 %30.30 in6.2 miENE (70°)12.7 mphMostly Cloudy
8:25 PM30.2 °F21.2 °F69 %30.30 in6.2 miENE (60°)10.4 mph
8:55 PM30.2 °F21.2 °F69 %30.30 in6.2 miENE (60°)10.4 mph
9:55 PM28.4 °F23.0 °F80 %30.30 in6.2 miENE (60°)8.1 mph
10:00 PM28.0 °F23.0 °F74 %30.33 in19.0 miENE (60°)8.9 mph
10:25 PM28.4 °F23.0 °F80 %30.30 in6.2 miENE (60°)8.1 mph
10:55 PM28.4 °F24.8 °F86 %30.33 in6.2 miENE (70°)8.1 mph
11:25 PM28.4 °F24.8 °F86 %30.30 in6.2 miENE (60°)10.4 mph
11:55 PM28.4 °F24.8 °F86 %30.30 in6.2 miENE (60°)9.2 mph
Hourly data recorded from EHRD, located miles away from Rotterdam, Netherlands







STORIES FROM OUR PARTNERS